Volver al catálogo

FENGYUN 1C DEB

LostSSO
NORAD 46446·DEBRIS·🇨🇳 China

Lanzado May 10, 1999 desde Taiyuan Satellite Launch Center

Loading…

Próximos Pases (próximas 24 horas)

TLE

ObsoletoSource: Space-Track

Época: Jan 15, 2024, 11:05 UTC

1 46446U 99025EZB 24015.46213056  .00008913  00000-0  39776-2 0  9993
2 46446  98.8787 107.6079 0067085 262.7126  96.6422 14.21746015771358

Sigue FENGYUN 1C DEB en tiempo real con AllMySat

Download on the App Store